FENGYUN 4A

Last updated on Aug. 8, 2020, 5:32 a.m. UTC

1 41882U 16077A   20220.51091243 -.00000340  00000-0  00000-0 0  9993
2 41882   0.0686  77.7796 0004313  59.8517 107.4679  1.00271383 13524
UTC
Height (km)
Latitude
Longitude
Inclination
Orbital Period
UTC large
Height (km)
Speed (km/s)
/
Latitude / Longitude
Inclination (degrees)
Orbital Period (minutes)
Azimuth
Elevation
Range (km)
Doppler Factor
iOS Compass Heading
iOS Angle

Next 30 passes for location: Hong Kong

Rise time Rise Azimuth (degrees) Set time Set Azimuth (degrees) Duration Max altitude (degrees)

No matching passes for this satellites